Location: Hains Lake
(37.8540°N, 99.8578°W)
Time: 06:45:50
(UTC+00:00)

Tianhe-1 - Visible Passes

Search period start: 24 June 2021 00:00
Search period end: 04 July 2021 00:00
Orbit: 375 x 386 km, 41.5° (Epoch: 23 June)

Date Brightness Start Highest point End Pass type
(mag) Time Alt. Az. Time Alt. Az. Time Alt. Az.
24 Jun 4.1 08:08:46 12° ENE 08:08:46 12° ENE 08:09:05 10° ENE visible
24 Jun 2.0 09:40:52 19° WNW 09:42:49 44° N 09:45:52 10° ENE visible
25 Jun 2.3 08:42:27 41° NE 08:42:27 41° NE 08:44:46 10° ENE visible
25 Jun 2.3 10:15:41 10° WNW 10:18:41 41° N 10:21:42 10° ENE visible
26 Jun 2.3 09:16:11 26° NW 09:17:29 40° N 09:20:29 10° ENE visible
27 Jun 3.4 08:17:53 23° NE 08:17:53 23° NE 08:19:18 10° ENE visible
27 Jun 2.0 09:50:15 10° WNW 09:53:18 47° N 09:56:22 10° E visible
28 Jun 2.2 08:51:49 40° N 08:52:04 41° N 08:55:04 10° ENE visible
28 Jun 1.0 10:25:50 10° WNW 10:28:58 87° SSW 10:32:07 10° ESE visible
29 Jun 1.5 09:26:01 23° WNW 09:27:47 61° NNE 09:30:54 10° E visible
30 Jun 3.5 08:28:29 19° ENE 08:28:29 19° ENE 08:29:35 10° E visible
30 Jun 1.1 10:00:40 13° W 10:03:19 53° SSW 10:06:24 10° SE visible
01 Jul 2.8 09:03:47 25° ESE 09:03:47 25° ESE 09:05:17 10° ESE visible
01 Jul 2.6 10:36:25 10° WSW 10:38:35 17° SW 10:40:46 10° S visible
02 Jul 2.8 03:08:28 10° S 03:10:05 16° SSE 03:10:05 16° SSE visible
02 Jul 3.5 09:39:56 13° SSE 09:39:56 13° SSE 09:40:20 10° SE visible
03 Jul 1.1 03:42:45 10° SW 03:45:46 52° SSE 03:46:01 50° SE visible
